Terminal Aerodrome Forecast
Issued by NWS Blacksburg, VA

Current Version | Previous Version | Graphics & Text | Print | Product List | Glossary On
Versions: 1 2 3 4 5 6 7 8 9 10 11 12 13 14 15 16 17 18 19 20 21 22 23 24 25 26 27 28 29 30 31 32 33 34
000
FTUS41 KRNK 280958 AAC
TAFBLF
TAF AMD
KBLF 280958Z 2810/2906 26006KT 1SM BR OVC002
     FM281200 25003KT 4SM BR SCT012 BKN100
     FM281400 30006KT P6SM BKN035
     FM290100 VRB03KT P6SM BKN250=

USA.gov is the U.S. government's official web portal to all federal, state and local government web resources and services.